Regional Weather Roundup
Issued by NWS Goodland, KS

Home | Current Version | Previous Version | Graphics & Text | Print | Product List | Glossary On
Versions: 1 2 3 4 5 6 7 8 9 10 11 12 13 14 15 16 17 18 19 20 21 22 23 24 25 26 27 28 29 30 31 32 33 34 35 36 37 38 39 40 41 42 43 44 45 46 47 48 49 50
345
ASUS43 KGLD 131759
RWRGLD

GOODLAND FORECAST AREA HOURLY WEATHER ROUNDUP
NATIONAL WEATHER SERVICE GOODLAND KS
1100 AM MST SAT FEB 13 2016

...OFFICIAL OBSERVATIONS...

CITY           SKY/WX    TMP DP  RH WIND       PRES   REMARKS
GOODLAND KS    FOG       27  26  96 S17       30.14F VSB 1/2 WCI  14
HILL CITY KS   CLOUDY    27  17  66 SE16      30.30F WCI  15
IMPERIAL NEB   CLOUDY    26  24  92 S16       30.13F WCI  14
MCCOOK NEB     CLOUDY    23  19  85 S17G24    30.23F WCI   9
AKRON CO       FOG       31  31 100 W6        30.04F VSB 1/2
BURLINGTON CO  CLOUDY    28  26  92 S13       30.10F FOG     WCI  17
LIMON CO       CLOUDY    31  30  96 SE3       30.06F
$$

...UNOFFICIAL OBSERVATIONS...

CITY           SKY/WX    TMP DP  RH WIND       PRES   REMARKS
COLBY KS       CLOUDY    25  25 100 S13       30.20S FOG     WCI  13
GOVE KS          N/A     25  32 100 MISG        N/A
LENORA KS        N/A     24  32 100 MISG        N/A
NORTON KS      CLOUDY    23  16  74 SE14G21   30.27F WCI  11
SHARON SPRINGS   N/A     27  26  95 S8          N/A
KIT CARSON CO    N/A     27  25  91 MISG        N/A
YUMA CO          N/A     30  28  94 SW7         N/A
$$




USA.gov is the U.S. government's official web portal to all federal, state and local government web resources and services.